[Date Prev][Date Next][Thread Prev][Thread Next] - [Date Index][Thread Index][Author Index]
2 Line ISS Keps 11-23
- Subject: [sarex] 2 Line ISS Keps 11-23
- From: "Dave Larsen PhD" <doc@xxxxxxxxxxx>
- Date: Fri, 23 Nov 2001 11:19:30 -0800
ISS
1 25544U 98067A 01327.52099483 .00051273 00000-0 57734-3 0 7516
2 25544 51.6408 7.2965 0010067 10.7310 140.0468 15.61981298171946
----
Via the sarex mailing list at AMSAT.ORG courtesy of AMSAT-NA.
To unsubscribe, send "unsubscribe sarex" to Majordomo@amsat.org
AMSAT Home